Flag for Canada Weather past 2 weeks in Windsor, Ontario, Canada

Now
84 °F

Passing clouds.


Feels Like: 83 °F
Forecast: N/A
Wind: 16 mph from West

Location: Windsor Weather Station

Current Time: Jul 30, 2015 at 5:15:29 PM

Latest Report: Jul 30, 2015 at 4:00 PM


Visibility: 15 mi

Pressure: 29.92 "Hg

Humidity: 40%

Dew point: 57 °F

Location of WindsorLocation

Historic Weather in Windsor — Graph

°F

Windsor temperature yesterday

Maximum temperature yesterday: 90 °F (at 3:00 PM)
Minimum temperature yesterday: 68 °F (at 2:00 AM)
Average temperature yesterday: 77 °F

Past Weeks' High & Low Weather Summary

 TemperatureHumidityPressure
High90 °F (Jul 18, 2:00 PM)100% (Jul 18, 5:00 AM)30.10 "Hg (Jul 18, 5:00 AM)
Low54 °F (Jul 16, 5:00 AM)37% (Jul 23, 1:00 PM)29.69 "Hg (Jul 21, 5:00 AM)
Average75 °F70%29.92 "Hg
* Reported Jul 15 4:00 PM — Jul 30 4:00 PM, Windsor, Weather by CustomWeather, © 2015

Note: Actual official high and low records may vary slightly from our data, if they occured in-between our weather recording intervals... More about our weather records

Advertising

Windsor weather history for previous 24 hours

 ConditionsComfort  
Time TempWeatherWind HumidityBarometerVisibility
4:00 PM
Thu, Jul 30
84 °FPassing clouds.16 mph40%29.92 "Hg15 mi
3:00 PM84 °FPassing clouds.16 mph43%29.93 "Hg15 mi
2:00 PM84 °FPassing clouds.16 mph43%29.94 "Hg15 mi
1:00 PM82 °FPassing clouds.15 mph42%29.94 "Hg15 mi
12:00 PM81 °FPassing clouds.15 mph48%29.95 "Hg15 mi
11:00 AM79 °FSunny.14 mph54%29.95 "Hg15 mi
10:00 AM77 °FSunny.12 mph57%29.95 "Hg15 mi
9:00 AM73 °FPassing clouds.10 mph61%29.95 "Hg15 mi
8:00 AM70 °FPassing clouds.8 mph73%29.95 "Hg15 mi
7:00 AM64 °FPassing clouds.7 mph88%29.94 "Hg15 mi
6:00 AM66 °FPassing clouds.8 mph78%29.92 "Hg15 mi
5:00 AM66 °FPassing clouds.8 mph78%29.91 "Hg15 mi
4:00 AM66 °FPassing clouds.8 mph78%29.90 "Hg15 mi
3:00 AM64 °FPassing clouds.6 mph88%29.90 "Hg15 mi
2:00 AM66 °FPassing clouds.8 mph83%29.91 "Hg15 mi
1:00 AM68 °FPassing clouds.7 mph78%29.91 "Hg15 mi
12:00 AM73 °FPassing clouds.9 mph61%29.91 "Hg15 mi
11:00 PM
Wed, Jul 29
73 °FPassing clouds.12 mph65%29.90 "Hg15 mi
10:00 PM77 °FPassing clouds.8 mph94%29.88 "Hg12 mi
9:00 PM77 °FBroken clouds.6 mph94%29.87 "Hg8 mi
8:00 PM81 °FScattered clouds.7 mph84%29.86 "Hg10 mi
7:00 PM79 °FSprinkles. Broken clouds.10 mph94%29.88 "Hg7 mi
6:00 PM79 °FBroken clouds.7 mph89%29.88 "Hg7 mi
5:00 PM75 °FStrong thunderstorms. More clouds than sun.15 mph94%29.90 "Hg3 mi
Weather by CustomWeather, © 2015

See weather overviewHow to use our weather pages